Flag for U.S.A. Weather past 2 weeks in Winder, Georgia, U.S.A.

Now
61 °F

Clear.


Feels Like: 61 °F
Forecast: 52 / 68 °F
Wind: 3 mph from Northwest

Location: Winder-Barrow Airport

Current Time: Apr 27, 2015 at 10:24:42 PM

Latest Report: Apr 27, 2015 at 9:55 PM


Visibility: 10 mi

Pressure: 29.91 "Hg

Humidity: 55%

Dew point: 45 °F

Location of WinderLocation

Historic Weather in Winder — Graph

°F

Winder temperature yesterday

Maximum temperature yesterday: 82 °F (at 2:15 PM)
Minimum temperature yesterday: 61 °F (at 11:55 PM)
Average temperature yesterday: 73 °F

Past Weeks' High & Low Weather Summary

 TemperatureHumidityPressure
High82 °F (Apr 14, 2:55 PM)100% (Apr 13, 6:35 AM)30.33 "Hg (Apr 13, 6:35 AM)
Low45 °F (Apr 22, 6:15 AM)27% (Apr 23, 3:55 PM)29.63 "Hg (Apr 26, 2:55 AM)
Average65 °F80%29.99 "Hg
* Reported Apr 12 9:15 PM — Apr 27 9:15 PM, Winder, Weather by CustomWeather, © 2015

Note: Actual official high and low records may vary slightly from our data, if they occured in-between our weather recording intervals... More about our weather records

Advertising

Winder weather history for previous 24 hours

 ConditionsComfort  
Time TempWeatherWind HumidityBarometerVisibility
9:15 PM
Mon, Apr 27
61 °FClear.6 mph59%29.90 "Hg10 mi
8:55 PM63 °FSunny.7 mph56%29.89 "Hg10 mi
8:15 PM64 °FSunny.8 mph52%29.87 "Hg10 mi
7:55 PM64 °FSunny.9 mph52%29.87 "Hg10 mi
7:15 PM68 °FSunny.10 mph46%29.87 "Hg10 mi
6:55 PM68 °FSunny.6 mph46%29.86 "Hg10 mi
6:35 PM70 °FSunny.6 mph40%29.86 "Hg10 mi
6:15 PM70 °FSunny.6 mph38%29.86 "Hg10 mi
5:55 PM70 °FSunny.8 mph40%29.87 "Hg10 mi
5:35 PM72 °FSunny.No wind38%29.87 "Hg10 mi
5:15 PM72 °FSunny.7 mph36%29.85 "Hg10 mi
4:55 PM72 °FSunny.5 mph33%29.85 "Hg10 mi
4:35 PM72 °FSunny.5 mph33%29.85 "Hg10 mi
4:15 PM72 °FSunny.8 mph33%29.85 "Hg10 mi
3:55 PM72 °FSunny.8 mph36%29.87 "Hg10 mi
3:35 PM72 °FSunny.6 mph36%29.88 "Hg10 mi
3:15 PM72 °FSunny.7 mph38%29.88 "Hg10 mi
2:55 PM72 °FSunny.9 mph38%29.88 "Hg10 mi
2:35 PM72 °FSunny.5 mph36%29.88 "Hg10 mi
2:15 PM72 °FSunny.No wind36%29.88 "Hg10 mi
1:55 PM72 °FSunny.10 mph38%29.88 "Hg10 mi
1:35 PM70 °FSunny.13 mph40%29.89 "Hg10 mi
1:15 PM70 °FSunny.7 mph43%29.90 "Hg10 mi
12:55 PM68 °FScattered clouds.5 mph53%29.88 "Hg10 mi
12:15 PM68 °FSunny.No wind56%29.91 "Hg10 mi
11:55 AM68 °FScattered clouds.3 mph60%29.92 "Hg10 mi
11:35 AM66 °FScattered clouds.6 mph60%29.92 "Hg10 mi
11:15 AM64 °FScattered clouds.5 mph68%29.92 "Hg10 mi
10:55 AM64 °FBroken clouds.7 mph73%29.94 "Hg10 mi
10:15 AM63 °FPartly sunny.6 mph77%29.94 "Hg10 mi
9:55 AM63 °FBroken clouds.3 mph77%29.93 "Hg10 mi
9:35 AM61 °FMore clouds than sun.5 mph83%29.92 "Hg10 mi
9:15 AM59 °FMore clouds than sun.3 mph88%29.91 "Hg10 mi
8:55 AM59 °FMore clouds than sun.3 mph88%29.90 "Hg10 mi
8:35 AM61 °FCloudy.3 mph83%29.90 "Hg10 mi
8:15 AM59 °FMostly cloudy.No wind88%29.90 "Hg10 mi
7:55 AM59 °FLow clouds.No wind88%29.89 "Hg10 mi
7:35 AM59 °FLow clouds.No wind88%29.87 "Hg10 mi
7:15 AM59 °FLow clouds.No wind88%29.87 "Hg10 mi
6:55 AM57 °FLow clouds.No wind94%29.86 "Hg10 mi
6:35 AM57 °FLow clouds.No wind94%29.85 "Hg10 mi
6:15 AM57 °FLow clouds.No wind94%29.85 "Hg10 mi
5:55 AM59 °FLow clouds.No wind88%29.85 "Hg10 mi
5:35 AM59 °FOvercast.No wind88%29.85 "Hg10 mi
5:15 AM59 °FOvercast.No wind88%29.84 "Hg10 mi
4:55 AM59 °FOvercast.5 mph88%29.83 "Hg10 mi
4:35 AM59 °FOvercast.3 mph88%29.82 "Hg10 mi
4:15 AM59 °FMostly cloudy.No wind88%29.82 "Hg10 mi
3:55 AM59 °FMostly cloudy.No wind88%29.82 "Hg10 mi
3:35 AM59 °FMostly cloudy.No wind88%29.81 "Hg10 mi
3:15 AM57 °FMostly cloudy.No wind94%29.81 "Hg10 mi
2:55 AM55 °FPassing clouds.No wind94%29.81 "Hg10 mi
2:35 AM57 °FClear.No wind88%29.81 "Hg10 mi
2:15 AM57 °FClear.3 mph88%29.80 "Hg10 mi
1:55 AM59 °FClear.3 mph82%29.81 "Hg10 mi
1:35 AM59 °FClear.3 mph82%29.81 "Hg10 mi
1:15 AM61 °FClear.6 mph77%29.81 "Hg10 mi
12:55 AM61 °FClear.6 mph77%29.82 "Hg10 mi
12:35 AM61 °FClear.5 mph77%29.81 "Hg10 mi
12:15 AM61 °FClear.5 mph83%29.81 "Hg10 mi
11:55 PM
Sun, Apr 26
61 °FClear.6 mph83%29.81 "Hg10 mi
11:35 PM63 °FPassing clouds.5 mph77%29.80 "Hg10 mi
11:15 PM64 °FPassing clouds.6 mph73%29.80 "Hg10 mi
10:55 PM64 °FClear.7 mph73%29.79 "Hg10 mi
10:35 PM66 °FClear.6 mph68%29.78 "Hg10 mi
10:15 PM68 °FClear.8 mph69%29.77 "Hg10 mi
Weather by CustomWeather, © 2015

See weather overviewHow to use our weather pages